sat.trackr.live / text

‹ back to catalog

KUIPER-00254

NORAD 68585 · 2026-072N

PAYLOAD ACTIVE UNKNOWN

§ Identity

Operator
Country
US
Launch date
2026-04-04
Launch site
AFETR
Launch vehicle
Mass (kg)
RCS (m²)

External: N2YO · Heavens-Above · Gunter

§ Orbital elements

Epoch: 2026-05-25T04:00:03.998880Z

Period
95.24 min
Inclination
51.8825°
Eccentricity
0.0008017
Mean motion
15.11895623 rev/d
Perigee alt
524.9 km
Apogee alt
536.0 km
Semi-major
6,908.6 km
B*
5.6999e-4
RAAN
289.5711°
Arg perigee
294.9526°
Mean anomaly
268.5250°
Rev number
539

§ Raw data

KUIPER-002541 68585U 26072N   26145.16671295  .00009598  00000+0  56999-3 0  99952 68585  51.8825 289.5711 0008017 294.9526 268.5250 15.11895623  5395

JSON: /api/v1/satellites/68585 · /tle

For live sub-satellite position, see the globe view (requires WebGL).

§ Visibility from observer

Set your observer location to see the next 7 days of passes ≥ 10°. The values pass through the URL so the page stays shareable.

No JS? Fill the form by hand. The geolocation button needs JavaScript.